When you browse on this site, cookies collect data to enhance your experience and personalize the content and advertising you see.
Visit our Privacy Policy to learn more. By continuing to use the site, you agree to this use of cookies and data.
  • In Portugal
  • List of Countries
  • For 7 days
  • Water Temperature
  • Satellite Maps
  • Weather Map
  • Weather Widgets
  • user-avatar
    Login

    Hourly Weather Gielczynek

    Today, 17 June, Monday

    Time Temperature Precipitation Wind Pressure Humidity
    00:00 +14°C° 0 mm 3 mps 754 mmHg 94%
    01:00 +14°C° 0 mm 3 mps 754 mmHg 95%
    02:00 +13°C° 0 mm 3 mps 754 mmHg 94%
    03:00 +13°C° 0 mm 3 mps 754 mmHg 94%
    04:00 +12°C° 0 mm 3 mps 754 mmHg 93%
    05:00 +14°C° 0 mm 3 mps 755 mmHg 89%
    06:00 +15°C° 0 mm 4 mps 755 mmHg 86%
    07:00 +17°C° 0 mm 4 mps 755 mmHg 82%
    08:00 +18°C° 0 mm 4 mps 755 mmHg 79%
    09:00 +20°C° 0 mm 4 mps 755 mmHg 76%
    10:00 +21°C° 0 mm 5 mps 755 mmHg 73%
    11:00 +21°C° 0 mm 5 mps 755 mmHg 74%
    12:00 +21°C° 0 mm 5 mps 755 mmHg 74%
    13:00 +21°C° 0 mm 4 mps 755 mmHg 75%
    14:00 +21°C° 0 mm 5 mps 755 mmHg 74%
    15:00 +22°C° 0 mm 5 mps 755 mmHg 72%
    16:00 +22°C° 0 mm 5 mps 755 mmHg 71%
    17:00 +21°C° 0 mm 4 mps 755 mmHg 74%
    18:00 +20°C° 0 mm 4 mps 755 mmHg 76%
    19:00 +18°C° 0 mm 3 mps 755 mmHg 79%
    20:00 +17°C° 0 mm 3 mps 756 mmHg 81%
    21:00 +16°C° 0 mm 3 mps 756 mmHg 83%
    22:00 +14°C° 0 mm 2 mps 756 mmHg 86%
    23:00 +14°C° 0 mm 2 mps 756 mmHg 86%

    Tomorrow, 18 June, Tuesday

    Time Temperature Precipitation Wind Pressure Humidity
    00:00 +14°C° 0 mm 2 mps 756 mmHg 87%
    01:00 +13°C° 0 mm 2 mps 756 mmHg 88%
    02:00 +13°C° 0 mm 2 mps 756 mmHg 88%
    03:00 +13°C° 0 mm 2 mps 756 mmHg 88%
    04:00 +13°C° 0 mm 2 mps 756 mmHg 88%
    05:00 +14°C° 0 mm 2 mps 756 mmHg 84%
    06:00 +16°C° 0 mm 2 mps 756 mmHg 80%
    07:00 +18°C° 0 mm 2 mps 756 mmHg 76%
    08:00 +19°C° 0 mm 3 mps 756 mmHg 71%
    09:00 +20°C° 0 mm 3 mps 756 mmHg 65%
    10:00 +22°C° 0 mm 3 mps 756 mmHg 60%
    11:00 +22°C° 0 mm 3 mps 756 mmHg 58%
    12:00 +24°C° 0 mm 3 mps 755 mmHg 56%
    13:00 +25°C° 0 mm 3 mps 755 mmHg 54%
    14:00 +25°C° 0 mm 3 mps 755 mmHg 57%
    15:00 +24°C° 0 mm 3 mps 754 mmHg 59%
    16:00 +24°C° 0 mm 3 mps 754 mmHg 62%
    17:00 +22°C° 0 mm 3 mps 754 mmHg 67%
    18:00 +21°C° 0 mm 3 mps 753 mmHg 72%
    19:00 +20°C° 0 mm 3 mps 753 mmHg 77%
    20:00 +19°C° 0 mm 3 mps 753 mmHg 77%
    21:00 +19°C° 0 mm 3 mps 753 mmHg 77%
    22:00 +18°C° 0 mm 3 mps 753 mmHg 77%
    23:00 +17°C° 0 mm 3 mps 753 mmHg 78%

    Day after tomorrow, 19 June, Wednesday

    Time Temperature Precipitation Wind Pressure Humidity
    00:00 +17°C° 0 mm 3 mps 753 mmHg 80%
    01:00 +17°C° 0 mm 3 mps 752 mmHg 81%
    02:00 +17°C° 0 mm 3 mps 752 mmHg 83%
    03:00 +17°C° 0 mm 4 mps 752 mmHg 85%
    04:00 +17°C° 0 mm 4 mps 751 mmHg 86%
    05:00 +18°C° 0 mm 4 mps 751 mmHg 86%
    06:00 +18°C° 0 mm 4 mps 751 mmHg 85%
    07:00 +19°C° 0 mm 5 mps 751 mmHg 84%
    08:00 +19°C° 0 mm 5 mps 751 mmHg 85%
    09:00 +19°C° 0 mm 5 mps 751 mmHg 86%
    10:00 +19°C° 0 mm 5 mps 751 mmHg 87%
    11:00 +20°C° 0 mm 5 mps 750 mmHg 84%
    12:00 +21°C° 0 mm 6 mps 750 mmHg 81%
    13:00 +23°C° 0 mm 6 mps 749 mmHg 78%
    14:00 +23°C° 0.1 mm 5 mps 749 mmHg 80%
    15:00 +23°C° 0.1 mm 5 mps 749 mmHg 81%
    16:00 +23°C° 0.1 mm 4 mps 748 mmHg 83%
    17:00 +24°C° 0.7 mm 3 mps 748 mmHg 85%
    18:00 +24°C° 0.7 mm 3 mps 748 mmHg 87%
    19:00 +23°C° 0.7 mm 2 mps 748 mmHg 88%
    20:00 +21°C° 0.2 mm 2 mps 748 mmHg 90%
    21:00 +21°C° 0.2 mm 1 mps 748 mmHg 91%
    22:00 +21°C° 0.2 mm 1 mps 748 mmHg 93%
    23:00 +20°C° 0 mm 1 mps 748 mmHg 93%

    20 June, Thursday

    Time Temperature Precipitation Wind Pressure Humidity
    00:00 +19°C° 0 mm 2 mps 747 mmHg 94%
    01:00 +19°C° 0 mm 2 mps 747 mmHg 94%
    02:00 +19°C° 0 mm 2 mps 748 mmHg 95%
    03:00 +18°C° 0 mm 2 mps 748 mmHg 95%
    04:00 +18°C° 0 mm 2 mps 748 mmHg 96%
    05:00 +20°C° 0 mm 2 mps 748 mmHg 92%
    06:00 +21°C° 0 mm 2 mps 748 mmHg 88%
    07:00 +24°C° 0 mm 2 mps 748 mmHg 84%
    08:00 +25°C° 0.1 mm 2 mps 749 mmHg 78%
    09:00 +27°C° 0.1 mm 2 mps 749 mmHg 72%
    10:00 +28°C° 0.1 mm 2 mps 749 mmHg 65%
    11:00 +29°C° 0 mm 2 mps 749 mmHg 61%
    12:00 +29°C° 0 mm 2 mps 749 mmHg 56%
    13:00 +30°C° 0 mm 2 mps 749 mmHg 52%
    14:00 +30°C° 0 mm 1 mps 749 mmHg 52%
    15:00 +30°C° 0 mm 1 mps 749 mmHg 52%
    16:00 +30°C° 0 mm 1 mps 749 mmHg 53%
    17:00 +29°C° 0 mm 1 mps 749 mmHg 58%
    18:00 +28°C° 0 mm 1 mps 749 mmHg 63%
    19:00 +26°C° 0 mm 1 mps 749 mmHg 68%
    20:00 +25°C° 0.3 mm 1 mps 750 mmHg 73%
    21:00 +23°C° 0.3 mm 2 mps 750 mmHg 78%
    22:00 +21°C° 0.3 mm 2 mps 750 mmHg 82%
    23:00 +20°C° 1.2 mm 2 mps 750 mmHg 86%

    21 June, Friday

    Time Temperature Precipitation Wind Pressure Humidity
    00:00 +20°C° 1.2 mm 2 mps 751 mmHg 90%
    01:00 +20°C° 1.2 mm 1 mps 751 mmHg 94%
    02:00 +19°C° 0.5 mm 2 mps 751 mmHg 95%
    03:00 +19°C° 0.5 mm 3 mps 751 mmHg 96%
    04:00 +18°C° 0.5 mm 3 mps 750 mmHg 97%
    05:00 +19°C° 0.1 mm 3 mps 751 mmHg 96%
    06:00 +19°C° 0.1 mm 3 mps 751 mmHg 95%
    07:00 +19°C° 0.1 mm 3 mps 751 mmHg 94%
    08:00 +19°C° 0 mm 3 mps 751 mmHg 92%
    09:00 +20°C° 0 mm 3 mps 751 mmHg 90%
    10:00 +21°C° 0 mm 3 mps 751 mmHg 88%
    11:00 +24°C° 0.2 mm 3 mps 751 mmHg 81%
    12:00 +25°C° 0.2 mm 3 mps 751 mmHg 74%
    13:00 +27°C° 0.2 mm 3 mps 750 mmHg 67%
    14:00 +27°C° 0.4 mm 3 mps 750 mmHg 69%
    15:00 +27°C° 0.4 mm 3 mps 750 mmHg 70%
    16:00 +27°C° 0.4 mm 3 mps 750 mmHg 72%
    17:00 +26°C° 0 mm 3 mps 750 mmHg 76%
    18:00 +25°C° 0 mm 3 mps 750 mmHg 81%
    19:00 +24°C° 0 mm 2 mps 750 mmHg 85%
    20:00 +23°C° 0 mm 2 mps 750 mmHg 88%
    21:00 +21°C° 0 mm 3 mps 750 mmHg 92%
    22:00 +20°C° 0 mm 3 mps 750 mmHg 95%
    23:00 +20°C° 0 mm 2 mps 750 mmHg 95%

    22 June, Saturday

    Time Temperature Precipitation Wind Pressure Humidity
    00:00 +19°C° 0 mm 2 mps 750 mmHg 95%
    01:00 +19°C° 0 mm 2 mps 750 mmHg 96%
    02:00 +19°C° 0 mm 2 mps 749 mmHg 96%
    03:00 +19°C° 0 mm 2 mps 749 mmHg 96%
    04:00 +19°C° 0 mm 2 mps 749 mmHg 96%
    05:00 +20°C° 0 mm 3 mps 749 mmHg 93%
    06:00 +21°C° 0 mm 3 mps 749 mmHg 91%
    07:00 +22°C° 0 mm 3 mps 749 mmHg 88%
    08:00 +24°C° 0 mm 3 mps 749 mmHg 84%
    09:00 +26°C° 0 mm 3 mps 749 mmHg 79%
    10:00 +27°C° 0 mm 3 mps 749 mmHg 74%
    11:00 +28°C° 1.5 mm 3 mps 749 mmHg 71%
    12:00 +28°C° 1.5 mm 2 mps 749 mmHg 68%
    13:00 +29°C° 1.5 mm 2 mps 748 mmHg 65%
    14:00 +29°C° 0.6 mm 2 mps 748 mmHg 65%
    15:00 +29°C° 0.6 mm 3 mps 748 mmHg 66%
    16:00 +29°C° 0.6 mm 3 mps 747 mmHg 66%
    17:00 +27°C° 1.8 mm 3 mps 747 mmHg 74%
    18:00 +25°C° 1.8 mm 3 mps 747 mmHg 82%
    19:00 +22°C° 1.8 mm 4 mps 747 mmHg 89%
    20:00 +21°C° 0.8 mm 4 mps 748 mmHg 91%
    21:00 +20°C° 0.8 mm 4 mps 748 mmHg 93%
    22:00 +19°C° 0.8 mm 3 mps 748 mmHg 95%
    23:00 +19°C° 0.1 mm 3 mps 748 mmHg 96%
    Show more